• In Russia
  • List of Countries
  • For 7 days
  • Water Temperature
  • Weather Map
  • Weather Widgets
  • user-avatar
    Login

    Hourly Weather Chakhansur

    Today, 26 January, Sunday

    Time Temperature Precipitation Wind Pressure Humidity
    00:00 +12°C° 0 mm 3 mps 720 mmHg 69%
    01:00 +11°C° 0 mm 3 mps 720 mmHg 70%
    02:00 +11°C° 0 mm 3 mps 720 mmHg 70%
    03:00 +11°C° 0 mm 3 mps 719 mmHg 71%
    04:00 +11°C° 0 mm 3 mps 720 mmHg 73%
    05:00 +11°C° 0.1 mm 3 mps 720 mmHg 73%
    06:00 +10°C° 0.1 mm 3 mps 720 mmHg 74%
    07:00 +10°C° 0.1 mm 3 mps 720 mmHg 75%
    08:00 +10°C° 0.2 mm 3 mps 720 mmHg 74%
    09:00 +10°C° 0.2 mm 3 mps 720 mmHg 73%
    10:00 +10°C° 0.2 mm 3 mps 720 mmHg 71%
    11:00 +10°C° 0.3 mm 4 mps 720 mmHg 74%
    12:00 +10°C° 0.3 mm 4 mps 719 mmHg 76%
    13:00 +9°C° 0.3 mm 5 mps 719 mmHg 78%
    14:00 +9°C° 0.2 mm 5 mps 718 mmHg 79%
    15:00 +9°C° 0.2 mm 6 mps 718 mmHg 80%
    16:00 +8°C° 0.2 mm 6 mps 718 mmHg 81%
    17:00 +8°C° 0 mm 5 mps 718 mmHg 80%
    18:00 +8°C° 0 mm 4 mps 719 mmHg 80%
    19:00 +8°C° 0 mm 4 mps 719 mmHg 79%
    20:00 +8°C° 0 mm 4 mps 719 mmHg 77%
    21:00 +8°C° 0 mm 3 mps 719 mmHg 75%
    22:00 +8°C° 0 mm 3 mps 719 mmHg 72%
    23:00 +7°C° 0 mm 4 mps 719 mmHg 72%

    Tomorrow, 27 January, Monday

    Time Temperature Precipitation Wind Pressure Humidity
    00:00 +7°C° 0 mm 4 mps 719 mmHg 72%
    01:00 +6°C° 0 mm 4 mps 718 mmHg 72%
    02:00 +6°C° 0 mm 4 mps 719 mmHg 71%
    03:00 +6°C° 0 mm 4 mps 719 mmHg 70%
    04:00 +5°C° 0 mm 5 mps 719 mmHg 70%
    05:00 +5°C° 0 mm 5 mps 719 mmHg 68%
    06:00 +5°C° 0 mm 5 mps 719 mmHg 67%
    07:00 +5°C° 0 mm 5 mps 720 mmHg 66%
    08:00 +5°C° 0 mm 6 mps 720 mmHg 60%
    09:00 +6°C° 0 mm 7 mps 721 mmHg 53%
    10:00 +9°C° 0 mm 8 mps 721 mmHg 47%
    11:00 +9°C° 0 mm 8 mps 721 mmHg 43%
    12:00 +10°C° 0 mm 9 mps 720 mmHg 40%
    13:00 +11°C° 0 mm 9 mps 720 mmHg 37%
    14:00 +11°C° 0 mm 9 mps 720 mmHg 37%
    15:00 +11°C° 0 mm 9 mps 719 mmHg 38%
    16:00 +11°C° 0 mm 9 mps 719 mmHg 39%
    17:00 +10°C° 0 mm 8 mps 719 mmHg 41%
    18:00 +9°C° 0 mm 8 mps 720 mmHg 43%
    19:00 +7°C° 0 mm 8 mps 720 mmHg 45%
    20:00 +6°C° 0 mm 8 mps 720 mmHg 48%
    21:00 +6°C° 0 mm 8 mps 720 mmHg 52%
    22:00 +5°C° 0 mm 8 mps 720 mmHg 55%
    23:00 +5°C° 0 mm 8 mps 720 mmHg 57%

    Day after tomorrow, 28 January, Tuesday

    Time Temperature Precipitation Wind Pressure Humidity
    00:00 +4°C° 0 mm 8 mps 720 mmHg 58%
    01:00 +4°C° 0 mm 8 mps 720 mmHg 60%
    02:00 +3°C° 0 mm 7 mps 720 mmHg 60%
    03:00 +3°C° 0 mm 7 mps 720 mmHg 60%
    04:00 +3°C° 0 mm 6 mps 720 mmHg 60%
    05:00 +2°C° 0 mm 6 mps 720 mmHg 61%
    06:00 +2°C° 0 mm 6 mps 720 mmHg 62%
    07:00 +2°C° 0 mm 6 mps 721 mmHg 63%
    08:00 +3°C° 0 mm 6 mps 721 mmHg 59%
    09:00 +4°C° 0 mm 6 mps 721 mmHg 56%
    10:00 +5°C° 0 mm 7 mps 722 mmHg 52%
    11:00 +6°C° 0 mm 7 mps 722 mmHg 48%
    12:00 +8°C° 0 mm 7 mps 721 mmHg 45%
    13:00 +9°C° 0 mm 7 mps 721 mmHg 41%
    14:00 +10°C° 0 mm 7 mps 720 mmHg 39%
    15:00 +10°C° 0 mm 7 mps 720 mmHg 37%
    16:00 +10°C° 0 mm 7 mps 720 mmHg 36%
    17:00 +9°C° 0 mm 7 mps 720 mmHg 39%
    18:00 +8°C° 0 mm 7 mps 720 mmHg 43%
    19:00 +6°C° 0 mm 7 mps 720 mmHg 46%
    20:00 +6°C° 0 mm 8 mps 721 mmHg 47%
    21:00 +5°C° 0 mm 8 mps 721 mmHg 49%
    22:00 +5°C° 0 mm 8 mps 721 mmHg 50%
    23:00 +4°C° 0 mm 8 mps 721 mmHg 51%

    29 January, Wednesday

    Time Temperature Precipitation Wind Pressure Humidity
    00:00 +4°C° 0 mm 7 mps 721 mmHg 52%
    01:00 +3°C° 0 mm 7 mps 720 mmHg 53%
    02:00 +3°C° 0 mm 7 mps 720 mmHg 54%
    03:00 +3°C° 0 mm 6 mps 720 mmHg 56%
    04:00 +2°C° 0 mm 6 mps 720 mmHg 57%
    05:00 +2°C° 0 mm 5 mps 721 mmHg 59%
    06:00 +1°C° 0 mm 5 mps 721 mmHg 61%
    07:00 +1°C° 0 mm 4 mps 721 mmHg 63%
    08:00 +3°C° 0 mm 4 mps 721 mmHg 58%
    09:00 +5°C° 0 mm 4 mps 722 mmHg 53%
    10:00 +6°C° 0 mm 5 mps 722 mmHg 48%
    11:00 +7°C° 0 mm 4 mps 722 mmHg 43%
    12:00 +8°C° 0 mm 4 mps 721 mmHg 38%
    13:00 +10°C° 0 mm 3 mps 721 mmHg 33%
    14:00 +11°C° 0 mm 3 mps 721 mmHg 31%
    15:00 +12°C° 0 mm 2 mps 721 mmHg 30%
    16:00 +12°C° 0 mm 2 mps 720 mmHg 29%
    17:00 +12°C° 0 mm 2 mps 721 mmHg 33%
    18:00 +11°C° 0 mm 1 mps 721 mmHg 38%
    19:00 +10°C° 0 mm 1 mps 721 mmHg 43%
    20:00 +9°C° 0 mm 1 mps 721 mmHg 44%
    21:00 +9°C° 0 mm 1 mps 721 mmHg 45%
    22:00 +9°C° 0 mm 1 mps 722 mmHg 46%
    23:00 +9°C° 0 mm 1 mps 721 mmHg 48%

    30 January, Thursday

    Time Temperature Precipitation Wind Pressure Humidity
    00:00 +8°C° 0 mm 1 mps 721 mmHg 50%
    01:00 +8°C° 0 mm 1 mps 721 mmHg 51%
    02:00 +8°C° 0 mm 1 mps 721 mmHg 51%
    03:00 +6°C° 0 mm 2 mps 721 mmHg 51%
    04:00 +6°C° 0 mm 2 mps 720 mmHg 51%
    05:00 +5°C° 0 mm 3 mps 721 mmHg 52%
    06:00 +5°C° 0 mm 3 mps 721 mmHg 52%
    07:00 +5°C° 0 mm 3 mps 721 mmHg 53%
    08:00 +7°C° 0 mm 3 mps 722 mmHg 49%
    09:00 +8°C° 0 mm 3 mps 722 mmHg 46%
    10:00 +10°C° 0 mm 3 mps 722 mmHg 42%
    11:00 +11°C° 0 mm 3 mps 721 mmHg 38%
    12:00 +13°C° 0 mm 2 mps 721 mmHg 34%
    13:00 +14°C° 0 mm 1 mps 720 mmHg 30%
    14:00 +14°C° 0 mm 1 mps 720 mmHg 29%
    15:00 +14°C° 0 mm 1 mps 720 mmHg 28%
    16:00 +15°C° 0 mm 1 mps 720 mmHg 27%
    17:00 +14°C° 0 mm 1 mps 720 mmHg 31%
    18:00 +13°C° 0 mm 1 mps 720 mmHg 36%
    19:00 +12°C° 0 mm 1 mps 720 mmHg 40%
    20:00 +11°C° 0 mm 1 mps 720 mmHg 41%
    21:00 +11°C° 0 mm 1 mps 720 mmHg 42%
    22:00 +10°C° 0 mm 1 mps 720 mmHg 43%
    23:00 +10°C° 0 mm 1 mps 720 mmHg 45%

    31 January, Friday

    Time Temperature Precipitation Wind Pressure Humidity
    00:00 +9°C° 0 mm 1 mps 720 mmHg 47%
    01:00 +9°C° 0 mm 1 mps 720 mmHg 49%
    02:00 +9°C° 0 mm 1 mps 719 mmHg 50%
    03:00 +8°C° 0 mm 1 mps 719 mmHg 51%
    04:00 +8°C° 0 mm 1 mps 719 mmHg 52%
    05:00 +8°C° 0 mm 1 mps 719 mmHg 53%
    06:00 +8°C° 0 mm 1 mps 720 mmHg 53%
    07:00 +7°C° 0 mm 1 mps 720 mmHg 53%
    08:00 +9°C° 0 mm 1 mps 720 mmHg 48%
    09:00 +11°C° 0 mm 1 mps 721 mmHg 43%
    10:00 +12°C° 0 mm 1 mps 721 mmHg 37%
    11:00 +13°C° 0 mm 1 mps 721 mmHg 35%
    12:00 +14°C° 0 mm 1 mps 720 mmHg 33%
    13:00 +14°C° 0 mm 0 mps 720 mmHg 31%
    14:00 +14°C° 0 mm 0 mps 720 mmHg 30%
    15:00 +15°C° 0 mm 1 mps 719 mmHg 30%
    16:00 +15°C° 0 mm 1 mps 719 mmHg 30%
    17:00 +15°C° 0 mm 1 mps 719 mmHg 33%
    18:00 +14°C° 0 mm 2 mps 719 mmHg 36%
    19:00 +13°C° 0 mm 2 mps 720 mmHg 39%
    20:00 +12°C° 0 mm 2 mps 720 mmHg 40%
    21:00 +12°C° 0 mm 2 mps 720 mmHg 41%
    22:00 +11°C° 0 mm 3 mps 720 mmHg 41%
    23:00 +10°C° 0 mm 3 mps 720 mmHg 42%
    Show more